Location: Santaluz Observatory
(32.9930°N, 117.1510°W)
Time: 21:58:07
(UTC-08:00)

Daily predictions for brighter satellites

Satellite Brightness Start Highest point End
(mag) Time Altitude Azimuth Time Altitude Azimuth Time Altitude Azimuth
Centaur D AC-28 3.2 16:52:29 10° SW 16:56:03 44° SSE 17:06:06 10° E
Meteor 1-25 Rocket 4.5 17:00:15 10° N 17:05:57 52° E 17:11:32 10° SSE
CZ-2C R/B 3.6 17:04:54 10° S 17:09:41 50° W 17:14:40 10° NNW
CZ-2C R/B 3.9 17:05:26 10° NNE 17:09:51 52° E 17:14:19 10° S
GPS 2-05 Rocket1 2.5 17:07:34 10° WSW 17:10:42 90° S 17:13:54 10° ENE
SJ-7 4.4 17:07:56 10° SSE 17:12:04 68° ENE 17:16:10 10° N
Cosmos 1464 Rocket 4.4 17:06:34 10° SSE 17:12:11 40° E 17:17:50 10° NNE
Okean 1-7 3.4 17:11:28 10° SSE 17:15:37 45° E 17:19:49 10° NNE
Cosmos 304 Rocket 3.8 17:11:47 10° NNW 17:16:37 86° WSW 17:21:23 10° SSE
OAO 3 Copernicus 4.3 17:18:15 10° WNW 17:23:22 86° NNE 17:28:28 10° ESE
CSL-04 Debris 4.2 17:21:15 10° SSE 17:26:41 87° WSW 17:32:06 10° NNW
Sich 1 Rocket 3.5 17:23:41 10° N 17:28:07 70° E 17:32:34 10° SSE
Meteor 1-27 Rocket 4.4 17:23:27 10° SSE 17:28:43 36° E 17:34:04 10° NNE
Cosmos 1763 Rocket 4.2 17:27:15 10° NNW 17:32:20 58° WSW 17:37:19 10° S
AQUARIUS 4.3 17:28:24 10° S 17:32:53 81° WSW 17:37:23 10° NNW
MTI 3.7 17:30:56 10° NNE 17:34:09 63° E 17:37:20 10° S
Cosmos 44 4.1 17:30:37 10° N 17:34:46 29° NE 17:39:06 10° ESE
Cosmos 2369 Rocket 3.7 17:35:08 10° SE 17:38:22 16° E 17:39:26 15° E
Cosmos 1833 Rocket 2.8 17:33:32 10° N 17:39:01 52° ENE 17:44:29 10° SE
Meteor 1-10 Rocket 4.2 17:33:50 10° S 17:39:28 80° E 17:45:15 10° N
CORIOLIS 4.3 17:37:20 10° S 17:42:46 81° WSW 17:48:14 10° NNW
USA 116 4.3 17:39:15 10° N 17:43:21 59° WNW 17:46:57 10° SSW
Cosmos 405 3.8 17:40:47 10° NNE 17:43:56 28° ENE 17:47:04 10° SE
Cosmos 2297 4.2 17:39:22 10° SSW 17:45:01 64° WNW 17:50:44 10° NNE
SL-27 R/B 2.9 17:41:49 10° NNW 17:45:08 62° WSW 17:48:28 10° S
Tiangong 1 0.6 17:42:37 10° WSW 17:45:12 69° NNW 17:46:16 30° NE
Cosmos 1782 Rocket 3.4 17:41:47 10° N 17:46:09 78° E 17:50:31 10° S
ALOS 2.9 17:42:31 10° SE 17:46:41 33° ENE 17:50:51 10° N
Cosmos 2278 Rocket 4.3 17:43:00 10° WSW 17:47:29 24° WNW 17:52:00 10° N
YAOGAN 1 2.4 17:43:23 10° SSE 17:47:42 77° ENE 17:52:01 10° N
BREEZE-M R/B 3.0 17:46:20 10° NW 17:49:17 47° NE 17:53:49 12° ESE
Cosmos 540 Rocket 3.3 17:47:34 10° NNW 17:52:45 76° ENE 17:57:53 10° SSE
Cosmos 1513 Rocket 4.4 17:46:37 10° S 17:52:55 81° E 17:59:10 10° N
SMAP 4.2 17:48:31 10° S 17:52:59 46° W 17:57:26 10° NNW
COSMO-SKYMED 1 2.5 17:48:56 10° NNE 17:53:18 88° ESE 17:57:37 10° SSW
BREEZE-M DEB (TANK) 2.9 17:47:10 10° WNW 17:53:51 67° SW 17:56:52 10° SE
Cosmos 1606 4.2 17:50:46 10° SSW 17:54:17 37° W 17:57:48 10° NNW
Cosmos 1441 Rocket 3.1 17:51:32 10° S 17:55:28 72° E 17:59:22 10° NNE
Cosmos 968 Rocket 3.4 17:50:46 10° S 17:55:50 63° ESE 18:00:45 11° NNE
Cosmos 1943 Rocket 4.0 17:59:26 10° SE 18:00:40 13° ESE 18:00:40 13° ESE
USA 234 3.2 18:01:49 17° NE 18:07:02 87° SE 18:13:34 10° SW
EO 1 Del DPAF 4.1 18:08:52 10° N 18:12:34 50° WNW 18:16:15 10° SSW
METEOR-M 4.3 18:07:36 10° S 18:12:55 74° WSW 18:18:16 10° NNW
CZ-4C R/B 3.2 18:06:23 10° NNW 18:13:21 43° NE 18:18:12 22° ESE
ERS-2 2.7 18:10:47 10° S 18:14:23 59° WSW 18:18:02 10° NNW
Meteor 1-11 Rocket 3.7 18:09:06 10° N 18:14:52 66° E 18:20:29 10° SSE
CZ-4 R/B 3.7 18:16:07 10° SSW 18:19:19 24° W 18:22:29 10° NW
Cosmos 2151 Rocket 3.5 18:17:14 10° N 18:21:36 59° E 18:25:57 10° SSE
Cosmos 1634 Rocket 4.2 18:19:37 10° SSE 18:25:23 44° E 18:26:52 38° NE
OAO 3 Rocket 3.2 18:20:32 10° W 18:25:28 79° N 18:26:33 54° ENE
Nadezhda 4 Rocket 3.8 18:20:11 10° N 18:26:18 71° E 18:32:23 10° SSE
Cosmos 1602 4.5 18:25:32 10° NNW 18:29:17 52° W 18:33:01 10° S
SEDSat Delta rocket 4.2 18:26:41 10° SW 18:29:57 26° SSE 18:29:57 26° SSE
Meteor 2-20 4.4 18:24:17 10° N 18:30:23 83° W 18:36:26 10° S
Cosmos 2082 Rocket 3.0 18:26:13 10° NNW 18:31:43 52° WSW 18:37:08 10° S
NOSS 3-1 (C) 3.8 18:26:57 10° S 18:31:25 36° SE 18:31:25 36° SE
Okean 2 Rocket 4.3 18:30:04 10° NNW 18:34:22 44° W 18:38:38 10° SSW
Gblst 52 Del rocket 4.2 18:31:14 10° SW 18:36:44 75° NW 18:38:33 45° NNE
Celestis-02/Orion 38 4.4 18:42:38 64° NE 18:43:25 80° ESE 18:48:39 10° SSW
Cosmos 1674 Rocket 3.5 18:40:01 10° S 18:44:15 79° WSW 18:44:15 79° WSW
Cosmos 1092 Rocket 3.8 18:39:21 10° N 18:45:30 70° E 18:51:40 10° SSE
Timation 2 Rocket 3.9 18:38:49 10° NNW 18:45:32 73° ENE 18:48:30 34° SE
ISS -1.6 18:46:29 10° SW 18:48:04 26° WSW 18:48:04 26° WSW
IUS-13 SRM-1 4.3 18:51:17 10° WSW 18:52:03 18° SW 18:52:03 18° SW
USA 229 DEB 3.9 18:48:05 10° SW 18:54:45 66° WNW 18:57:42 35° NNE
USA 229 3.9 18:48:10 10° SW 18:54:51 66° WNW 18:57:45 36° NNE
FengYun 1-2 T 4.1 18:51:02 10° SSE 18:56:31 86° E 19:02:07 10° NNW
Cosmos 44 Rocket 4.2 18:52:23 10° NW 18:57:08 48° WSW 19:00:07 22° S
MOS 1-B Rocket 4.4 18:52:56 10° SSE 19:00:00 76° ENE 19:08:21 10° N
Atlas 2A Centaur Rocket 3.2 18:51:29 10° W 19:02:31 46° SSW 19:02:42 46° S
Cosmos 2142 Rocket 4.3 18:58:47 10° S 19:05:06 86° E 19:05:06 86° E
Cosmos 2369 Rocket 2.8 19:16:20 10° SW 19:21:18 52° W 19:21:18 52° W
Cosmos 1943 Rocket 4.1 19:40:17 10° SW 19:42:16 22° SW 19:42:16 22° SW
CZ-4C R/B 4.0 19:55:02 10° NW 20:01:58 40° WSW 20:03:36 36° SW
